Powrót do katalogu

SL-16 DEB

AktywnyLEO
NORAD 23408·DEBRIS·🇷🇺 Russia

Wystrzelony Nov 24, 1994 z Baikonur Cosmodrome

Loading…

Następne Przeloty (najbliższe 24 godziny)

TLE

ŚwieżeSource: Space-Track

Epoka: Sep 14, 2026, 17:51 UTC

1 23408U 94077E   26257.74424390  .00000037  00000-0  76125-4 0  9994
2 23408  70.9827 262.6147 0215492 265.2076 271.7203 13.71357225590991

Śledź SL-16 DEB w czasie rzeczywistym z AllMySat

Download on the App Store